Regional Weather Roundup
Issued by NWS Austin/San Antonio, TX

Current Version | Previous Version | Text Only | Print | Product List | Glossary On
Versions: 1 2 3 4 5 6 7 8 9 10 11 12 13 14 15 16 17 18 19 20 21 22 23 24 25 26 27 28 29 30 31 32 33 34 35 36 37 38 39 40 41 42 43 44 45 46 47 48 49 50
000
ASUS44 KEWX 300613
RWREWX
SOUTH TEXAS REGIONAL WEATHER ROUNDUP
NATIONAL WEATHER SERVICE AUSTIN/SAN ANTONIO TX
100 AM CDT FRI SEP 30 2022

NOTE: "FAIR" INDICATED FEW OR NO CLOUDS BELOW 12,000 FEET WITH NO
SIGNIFICANT WEATHER AND/OR OBSTRUCTIONS TO VISIBILITY.

* - THESE STATIONS ARE NOT NWS OR FAA STATIONS...AND ARE NOT SUBJECT
    TO NWS AND FAA QUALITY CONTROL.

TXZ171-172-183>190-300700-
TEXAS HILL COUNTRY AND EDWARDS PLATEAU

CITY           SKY/WX    TMP DP  RH WIND       PRES   REMARKS
JUNCTION       NOT AVBL
*LLANO         CLOUDY    70  48  46 E7        30.08F
BURNET         CLEAR     72  49  44 E3        30.12S
6HR MIN TEMP:  72; 6HR MAX TEMP:  87;

*HORSESHOE BAY CLEAR     72  46  39 SE5       30.08F
6HR MIN TEMP:  72; 6HR MAX TEMP:  88;

*LAGO VISTA      N/A     70  48  45 E7        30.10F
6HR MIN TEMP:  70; 6HR MAX TEMP:  89;

*KERRVILLE     CLEAR     60  48  65 N3        30.10F
6HR MIN TEMP:  59; 6HR MAX TEMP:  86;

*FREDERICKSBRG CLEAR     61  48  61 NW3       30.10F
6HR MIN TEMP:  61; 6HR MAX TEMP:  83;

*ROCKSPRINGS   PTCLDY    68  48  49 SW6       30.18F
*BOERNE        CLEAR     61  46  59 CALM      30.09F
*CASTROVILLE   CLEAR     73  46  38 CALM      30.08F
HONDO          CLEAR     68  47  46 NW6       30.07F
6HR MIN TEMP:  68; 6HR MAX TEMP:  88;

*UVALDE        CLEAR     66  51  57 CALM      30.10F
6HR MIN TEMP:  64; 6HR MAX TEMP:  86;

DEL RIO        CLEAR     67  55  65 E3        30.07F
6HR MIN TEMP:  67; 6HR MAX TEMP:  85;

*LAUGHLIN AFB  CLEAR     66  55  67 CALM      30.06S
6HR MIN TEMP:  66; 6HR MAX TEMP:  84;

*SPOFFORD      CLEAR     65  48  55 NW3       30.07F
6HR MIN TEMP:  65; 6HR MAX TEMP:  85;

CARRIZO SPRGS  CLEAR     70  50  49 SW6       30.06S
*FAITH RANCH   CLEAR     70  50  49 S6        30.08F
$$

TXZ173-191>194-202-209-217>225-228-300700-
CENTRAL AND SOUTH CENTRAL TEXAS

CITY           SKY/WX    TMP DP  RH WIND       PRES   REMARKS
GEORGETOWN     CLEAR     70  49  47 E3        30.12S
6HR MIN TEMP:  66; 6HR MAX TEMP:  87;

*TAYLOR        CLEAR     64  50  59 CALM      30.09S
6HR MIN TEMP:  63; 6HR MAX TEMP:  86;

AUSTIN/BERGSTM CLEAR     62  52  69 CALM      30.07S
6HR MIN TEMP:  60; 6HR MAX TEMP:  88;

AUSTIN/MABRY   CLEAR     72  50  45 CALM      30.09S
6HR MIN TEMP:  72; 6HR MAX TEMP:  87;

*PFLUGERVILLE  MOCLDY    66  48  52 NE6       30.07F
SAN MARCOS     CLEAR    N/A N/A N/A SE3         N/A
NEW BRAUNFELS  CLEAR     66  51  58 E5        30.05S
6HR MIN TEMP:  66; 6HR MAX TEMP:  89;

*RANDOLPH AFB  CLEAR     68  51  54 CALM      30.03F
6HR MIN TEMP:  68; 6HR MAX TEMP:  87;

*SEGUIN        CLEAR     67  50  54 E5        30.04S
6HR MIN TEMP:  66; 6HR MAX TEMP:  87;

SAN ANTONIO    CLEAR     72  52  49 CALM      30.06F
6HR MIN TEMP:  72; 6HR MAX TEMP:  88;

STINSON FIELD  CLEAR     69  52  54 CALM      30.04F
6HR MIN TEMP:  67; 6HR MAX TEMP:  88;

*KELLY FIELD   CLEAR     68  50  52 S3        30.03F
6HR MIN TEMP:  68; 6HR MAX TEMP:  88; 6HR PCP: TRACE;

*PLEASANTON    CLEAR     66  54  64 CALM      30.06F
6HR MIN TEMP:  66; 6HR MAX TEMP:  87;

*KENEDY        CLEAR     66  57  71 CALM      30.07S
6HR MIN TEMP:  66; 6HR MAX TEMP:  87;

*LA GRANGE     NOT AVBL
*GIDDINGS      CLEAR     64  50  60 CALM      30.09S
6HR MIN TEMP:  63; 6HR MAX TEMP:  85;

*GONZALES      CLEAR     69  53  58 CALM      30.07S
6HR MIN TEMP:  69; 6HR MAX TEMP:  87;

$$

TXZ163>164-176>182-195>201-210>213-226-227-235-300700-
SOUTHEAST TEXAS

CITY           SKY/WX    TMP DP  RH WIND       PRES   REMARKS
COLLEGE STN    CLEAR     68  46  45 E7        30.10R
6HR MIN TEMP:  68; 6HR MAX TEMP:  83;

*BRYAN         CLEAR     65  45  47 E6        30.13R
6HR MIN TEMP:  65; 6HR MAX TEMP:  81;

*CALDWELL      CLEAR     68  47  46 E6        30.10R
6HR MIN TEMP:  67; 6HR MAX TEMP:  82;

*CROCKETT      CLEAR     61  41  48 CALM      30.12S
*BRENHAM       CLEAR     68  51  55 E5          N/A
6HR MIN TEMP:  64; 6HR MAX TEMP:  83;

HUNTSVILLE     CLEAR     65  45  48 E5        30.10F
6HR MIN TEMP:  65; 6HR MAX TEMP:  82;

CONROE         CLEAR     62  46  55 E5        30.11S
6HR MIN TEMP:  59; 6HR MAX TEMP:  79;

HOUSTON BUSH   CLEAR     67  45  45 E13       30.09S
6HR MIN TEMP:  67; 6HR MAX TEMP:  80;

HOUSTON HOBBY  CLEAR     70  44  39 E16       30.08S
6HR MIN TEMP:  70; 6HR MAX TEMP:  82;

*HOUSTON SW AP NOT AVBL
PEARLAND       CLEAR     71  48  43 E14       30.09S
6HR MIN TEMP:  68; 6HR MAX TEMP:  82;

HOUSTON HOOKS  CLEAR     68  45  43 E8        30.09F
6HR MIN TEMP:  63; 6HR MAX TEMP:  82;

ELLINGTON FLD  CLEAR     68  46  45 NE14G23   30.08S
SUGAR LAND     CLEAR     72  44  36 E12       30.07S
6HR MIN TEMP:  65; 6HR MAX TEMP:  77;

*HOUSTON EXEC  CLEAR     66  48  52 E8        30.10S
*CLEVELAND MUN NOT AVBL
*WHARTON       CLEAR     60  56  85 CALM      30.08S
6HR MIN TEMP:  60; 6HR MAX TEMP:  80;

*COLUMBUS      FAIR      60  52  74 CALM      30.09S
6HR MIN TEMP:  60; 6HR MAX TEMP:  83;

*EAGLE LAKE    CLEAR     63  54  72 MISG      30.07S
6HR MIN TEMP:  63; 6HR MAX TEMP:  82;

$$

TXZ214>216-236>238-300700-
THE UPPER TEXAS COAST

CITY           SKY/WX    TMP DP  RH WIND       PRES   REMARKS
*ORANGE        CLEAR     57  49  75 CALM      30.10F
6HR MIN TEMP:  57; 6HR MAX TEMP:  76;

PORT ARTHUR    CLEAR     62  47  57 NE6       30.08F
6HR MIN TEMP:  62; 6HR MAX TEMP:  76;

GALVESTON      CLEAR     72  51  47 NE15      30.07F
6HR MIN TEMP:  72; 6HR MAX TEMP:  77;

ANGLETON       CLEAR     67  51  56 NE7       30.07S
6HR MIN TEMP:  59; 6HR MAX TEMP:  74;

*BAY CITY      CLEAR     61  58  90 E9        30.07S
PALACIOS       CLEAR     65  59  81 NE5       30.05F
6HR MIN TEMP:  65; 6HR MAX TEMP:  78;

$$

TXZ229>234-239>247-300700-
TEXAS COASTAL BEND AND RIO GRANDE PLAINS

CITY           SKY/WX    TMP DP  RH WIND       PRES   REMARKS
VICTORIA       CLEAR     63  60  90 NE5       30.06S
6HR MIN TEMP:  63; 6HR MAX TEMP:  83;

*BEEVILLE      CLEAR     68  58  70 SW5       30.04F
6HR MIN TEMP:  65; 6HR MAX TEMP:  84;

ROCKPORT       CLEAR     67  63  87 SW5       30.04S
6HR MIN TEMP:  67; 6HR MAX TEMP:  79;

*PORT ARANSAS  CLEAR    N/A N/A N/A CALM      30.05F
*PORT LAVACA   CLEAR     67  56  68 CALM      30.06S
6HR MIN TEMP:  67; 6HR MAX TEMP:  86;

*INGLESIDE     CLEAR     71  64  78 CALM      30.03S
CORPUS CHRISTI CLEAR     70  60  70 SW3       30.03F
6HR MIN TEMP:  69; 6HR MAX TEMP:  85;

CORPUS NAS     CLEAR     75  65  70 SW3       30.03F
6HR MIN TEMP:  73; 6HR MAX TEMP:  81;

*ROBSTOWN      CLEAR     68  58  70 MISG      30.05S
6HR MIN TEMP:  68; 6HR MAX TEMP:  85;

ALICE          CLEAR     65  61  87 SW6       30.04F
6HR MIN TEMP:  65; 6HR MAX TEMP:  85;

KINGSVILLE NAS CLEAR     66  62  87 SW5       30.04F
6HR MIN TEMP:  66; 6HR MAX TEMP:  81;

COTULLA        CLEAR     68  54  60 CALM      30.05F
6HR MIN TEMP:  67; 6HR MAX TEMP:  87;

LAREDO         CLEAR     75  54  47 SE5       30.06F
6HR MIN TEMP:  74; 6HR MAX TEMP:  88;

$$

TXZ248>255-300700-
DEEP SOUTH TEXAS



USA.gov is the U.S. government's official web portal to all federal, state and local government web resources and services.